Kinston, NC

9:42 PM EDT on July 27, 2017 (GMT -0400)
Kinston Regional Jetport / Stallings Field

Weather History for KISO - April, 2013

Change the Weather History Date:

Monday, April 22, 2013

  Actual Average Record
Temperature  
Mean Temperature 50 °F -  
Max Temperature 60 °F 72 °F 92 °F (1985)
Min Temperature 40 °F 52 °F 32 °F (1981)
Degree Days  
Heating Degree Days 15    
Moisture  
Dew Point 42 °F    
Average Humidity 82    
Maximum Humidity 100    
Minimum Humidity 55    
Precipitation  
Precipitation 0.00 in - - ()
Sea Level Pressure  
Sea Level Pressure 30.35 in    
Wind  
Wind Speed 11 mph (North)    
Max Wind Speed 20 mph    
Max Gust Speed 29 mph    
Visibility 8 miles    
Events Rain    
Averages and records for this station are not official NWS values.
T = Trace of Precipitation, MM = Missing Value Source: NWS Daily Summary

Daily Weather History Graph

Daily Weather History Graph

Search for Another Location

Airport or City:

Trip Planner

Search our weather history database for the weather conditions in past years. The results will help you decide how hot, cold, wet, or windy it might be!

Date:

Astronomy

Apr. 22, 2013 Rise Set
Actual Time 6:29 AM EDT 7:49 PM EDT
Civil Twilight 6:02 AM EDT 8:15 PM EDT
Nautical Twilight 5:30 AM EDT 8:47 PM EDT
Astronomical Twilight 4:57 AM EDT 9:21 PM EDT
Moon 4:42 PM EDT (4/22) 4:15 AM EDT (4/22)
Length of Visible Light 14h 13m
Length of Day
13h 20m
Waxing Gibbous, 87% of the Moon is Illuminated
Apr 22
Waxing Gibbous
Apr 25
Full
May 2
Last Quarter
May 9
New
May 18
First Quarter

Hourly Weather History & Observations

Time (EDT) Temp. Windchill Dew Point Humidity Pressure Visibility Wind Dir Wind Speed Gust Speed Precip Events Conditions
12:15 AM 44.2 °F 39.2 °F 36.1 °F 73% 30.48 in 10.0 mi NNE 9.2 mph - N/A   Clear
12:35 AM 43.7 °F 39.1 °F 36.0 °F 74% 30.47 in 10.0 mi NNE 8.1 mph - N/A   Clear
12:55 AM 43.2 °F 37.9 °F 36.0 °F 76% 30.46 in 10.0 mi North 9.2 mph - N/A   Clear
1:15 AM 43.0 °F 37.7 °F 36.5 °F 78% 30.45 in 10.0 mi North 9.2 mph - N/A   Clear
1:35 AM 42.8 °F 37.5 °F 37.0 °F 80% 30.44 in 10.0 mi North 9.2 mph 16.1 mph N/A   Clear
1:55 AM 42.4 °F 38.1 °F 37.4 °F 82% 30.45 in 10.0 mi NNE 6.9 mph - N/A   Clear
2:15 AM 42.1 °F 36.6 °F 37.4 °F 83% 30.44 in 10.0 mi NNE 9.2 mph - N/A   Clear
2:35 AM 41.9 °F 36.9 °F 37.6 °F 85% 30.44 in 10.0 mi North 8.1 mph - N/A   Clear
2:55 AM 41.5 °F 35.9 °F 37.8 °F 86% 30.42 in 10.0 mi North 9.2 mph - N/A   Clear
3:15 AM 41.2 °F 34.1 °F 37.4 °F 86% 30.40 in 10.0 mi North 12.7 mph 17.3 mph N/A   Clear
3:35 AM 41.0 °F 33.9 °F 36.5 °F 84% 30.40 in 10.0 mi North 12.7 mph 18.4 mph N/A   Clear
3:55 AM 41.0 °F 33.9 °F 36.3 °F 83% 30.39 in 10.0 mi North 12.7 mph 18.4 mph N/A   Clear
4:15 AM 41.0 °F 35.2 °F 35.8 °F 82% 30.40 in 10.0 mi NNE 9.2 mph - N/A   Clear
4:35 AM 41.0 °F 35.8 °F 35.6 °F 81% 30.40 in 10.0 mi NNE 8.1 mph - N/A   Clear
4:55 AM 40.8 °F 35.6 °F 35.6 °F 82% 30.40 in 10.0 mi NNE 8.1 mph - N/A   Clear
5:15 AM 40.5 °F 34.6 °F 35.6 °F 83% 30.39 in 10.0 mi North 9.2 mph - N/A   Clear
5:35 AM 40.5 °F 35.8 °F 35.4 °F 82% 30.39 in 10.0 mi North 6.9 mph - N/A   Clear
5:55 AM 40.3 °F 33.4 °F 35.4 °F 83% 30.39 in 10.0 mi North 11.5 mph - N/A   Clear
6:15 AM 40.3 °F 34.4 °F 35.4 °F 83% 30.38 in 10.0 mi NNE 9.2 mph - N/A   Clear
6:35 AM 40.5 °F 34.6 °F 35.6 °F 83% 30.39 in 10.0 mi North 9.2 mph - N/A   Clear
6:55 AM 40.5 °F 35.1 °F 36.0 °F 84% 30.39 in 10.0 mi North 8.1 mph - N/A   Clear
6:56 AM 41.0 °F 35.8 °F 35.6 °F 81% 30.38 in 10.0 mi North 8.1 mph - N/A   Clear
7:56 AM 42.8 °F 38.0 °F 37.4 °F 81% 30.39 in 10.0 mi North 8.1 mph - N/A   Scattered Clouds
8:56 AM 46.4 °F 41.1 °F 39.2 °F 76% 30.38 in 10.0 mi North 11.5 mph 20.7 mph N/A   Clear
9:56 AM 50.0 °F - 42.8 °F 76% 30.36 in 10.0 mi North 11.5 mph 18.4 mph N/A   Mostly Cloudy
10:56 AM 53.6 °F - 44.6 °F 72% 30.36 in 10.0 mi North 13.8 mph 19.6 mph N/A   Mostly Cloudy
11:56 AM 57.2 °F - 44.6 °F 63% 30.35 in 10.0 mi North 13.8 mph 20.7 mph N/A   Mostly Cloudy
12:56 PM 59.0 °F - 44.6 °F 59% 30.32 in 10.0 mi North 12.7 mph 24.2 mph N/A   Mostly Cloudy
1:56 PM 60.8 °F - 44.6 °F 55% 30.29 in 10.0 mi North 18.4 mph 24.2 mph N/A   Mostly Cloudy
2:56 PM 60.8 °F - 44.6 °F 55% 30.27 in 10.0 mi North 16.1 mph 24.2 mph N/A   Overcast
3:56 PM 59.0 °F - 46.4 °F 63% 30.25 in 10.0 mi North 17.3 mph 23.0 mph N/A   Overcast
4:56 PM 57.2 °F - 46.4 °F 67% 30.25 in 10.0 mi NNE 17.3 mph 23.0 mph N/A   Overcast
5:56 PM 55.4 °F - 48.2 °F 77% 30.25 in 10.0 mi NNE 19.6 mph 28.8 mph N/A   Overcast
6:41 PM 53.6 °F - 48.2 °F 82% 30.25 in 1.0 mi NNE 18.4 mph 23.0 mph N/A   Overcast
6:56 PM 51.8 °F - 50.0 °F 94% 30.25 in 1.0 mi North 16.1 mph 21.9 mph N/A Rain Rain
7:56 PM 51.8 °F - 50.0 °F 94% 30.25 in 2.0 mi North 11.5 mph 17.3 mph N/A   Light Drizzle
8:56 PM 50.0 °F - 50.0 °F 100% 30.25 in 4.0 mi North 11.5 mph 23.0 mph N/A   Light Drizzle
9:15 PM 50.7 °F - 49.3 °F 95% 30.25 in 5.0 mi North 10.4 mph - N/A   Light Drizzle
9:35 PM 50.5 °F - 49.3 °F 95% 30.25 in 5.0 mi North 11.5 mph - N/A   Drizzle
9:55 PM 50.5 °F - 49.3 °F 95% 30.26 in 5.0 mi North 13.8 mph - N/A   Light Drizzle
10:15 PM 50.5 °F - 49.5 °F 96% 30.26 in 4.0 mi North 11.5 mph - N/A   Drizzle
10:35 PM 50.4 °F - 49.3 °F 96% 30.25 in 4.0 mi North 10.4 mph 16.1 mph N/A   Drizzle
10:55 PM 50.4 °F - 49.3 °F 96% 30.25 in 3.0 mi North 12.7 mph 16.1 mph N/A   Drizzle
11:15 PM 50.4 °F - 49.3 °F 96% 30.25 in 3.0 mi North 13.8 mph 18.4 mph N/A Rain Light Rain
11:35 PM 50.2 °F - 49.1 °F 96% 30.25 in 5.0 mi North 10.4 mph 18.4 mph N/A   Drizzle
11:55 PM 50.2 °F - 49.1 °F 96% 30.24 in 7.0 mi North 11.5 mph - N/A   Light Drizzle